Hourly Weather Aarschot

Today, 26 January, Tuesday

Time Temperature Precipitation Wind Pressure Humidity
00:00 -1°C° 0 mm 6 mps 755 mmHg 87%
01:00 -1°C° 0 mm 6 mps 756 mmHg 85%
02:00 +1°C° 0 mm 5 mps 756 mmHg 83%
03:00 +1°C° 0 mm 5 mps 756 mmHg 81%
04:00 +1°C° 0 mm 5 mps 757 mmHg 81%
05:00 +1°C° 0 mm 6 mps 757 mmHg 81%
06:00 +1°C° 0 mm 6 mps 758 mmHg 81%
07:00 +1°C° 0 mm 5 mps 758 mmHg 81%
08:00 +1°C° 0 mm 5 mps 759 mmHg 82%
09:00 +1°C° 0 mm 5 mps 759 mmHg 82%
10:00 +1°C° 0 mm 5 mps 760 mmHg 78%
11:00 +3°C° 0 mm 4 mps 760 mmHg 75%
12:00 +4°C° 0 mm 4 mps 760 mmHg 71%
13:00 +4°C° 0 mm 4 mps 760 mmHg 72%
14:00 +4°C° 0 mm 4 mps 760 mmHg 72%
15:00 +4°C° 0 mm 3 mps 760 mmHg 73%
16:00 +3°C° 0 mm 3 mps 760 mmHg 77%
17:00 +2°C° 0 mm 3 mps 760 mmHg 81%
18:00 +2°C° 0 mm 3 mps 760 mmHg 85%
19:00 +2°C° 0 mm 3 mps 760 mmHg 81%
20:00 0°C° 0 mm 4 mps 759 mmHg 76%
21:00 0°C° 0 mm 4 mps 759 mmHg 71%
22:00 0°C° 0.1 mm 5 mps 759 mmHg 75%
23:00 -1°C° 0.1 mm 6 mps 759 mmHg 80%

Tomorrow, 27 January, Wednesday

Time Temperature Precipitation Wind Pressure Humidity
00:00 -2°C° 0.1 mm 7 mps 758 mmHg 85%
01:00 -2°C° 0.2 mm 7 mps 757 mmHg 88%
02:00 -2°C° 0.2 mm 7 mps 757 mmHg 92%
03:00 -2°C° 0.2 mm 7 mps 756 mmHg 95%
04:00 -1°C° 0.1 mm 7 mps 755 mmHg 92%
05:00 -1°C° 0.1 mm 6 mps 755 mmHg 89%
06:00 -1°C° 0.1 mm 6 mps 755 mmHg 85%
07:00 +1°C° 0 mm 6 mps 755 mmHg 86%
08:00 +1°C° 0 mm 6 mps 755 mmHg 87%
09:00 +1°C° 0 mm 6 mps 755 mmHg 87%
10:00 +2°C° 0 mm 5 mps 755 mmHg 88%
11:00 +5°C° 0 mm 5 mps 755 mmHg 88%
12:00 +6°C° 0 mm 5 mps 755 mmHg 89%
13:00 +6°C° 0 mm 5 mps 755 mmHg 89%
14:00 +6°C° 0 mm 4 mps 755 mmHg 89%
15:00 +6°C° 0 mm 4 mps 755 mmHg 89%
16:00 +6°C° 0 mm 4 mps 755 mmHg 91%
17:00 +5°C° 0 mm 3 mps 756 mmHg 92%
18:00 +5°C° 0 mm 3 mps 756 mmHg 94%
19:00 +5°C° 0 mm 3 mps 756 mmHg 95%
20:00 +5°C° 0 mm 3 mps 756 mmHg 96%
21:00 +6°C° 0 mm 2 mps 756 mmHg 96%
22:00 +5°C° 0 mm 2 mps 756 mmHg 96%
23:00 +5°C° 0 mm 2 mps 756 mmHg 96%

Day after tomorrow, 28 January, Thursday

Time Temperature Precipitation Wind Pressure Humidity
00:00 +5°C° 0 mm 2 mps 756 mmHg 96%
01:00 +5°C° 0.2 mm 2 mps 755 mmHg 96%
02:00 +5°C° 0.2 mm 2 mps 754 mmHg 96%
03:00 +5°C° 0.2 mm 2 mps 754 mmHg 96%
04:00 +6°C° 1.3 mm 2 mps 753 mmHg 97%
05:00 +5°C° 1.3 mm 3 mps 752 mmHg 97%
06:00 +5°C° 1.3 mm 3 mps 751 mmHg 97%
07:00 +7°C° 1.7 mm 3 mps 750 mmHg 97%
08:00 +7°C° 1.7 mm 3 mps 749 mmHg 97%
09:00 +7°C° 1.7 mm 4 mps 748 mmHg 97%
10:00 +7°C° 1.4 mm 5 mps 748 mmHg 96%
11:00 +8°C° 1.4 mm 5 mps 747 mmHg 95%
12:00 +9°C° 1.4 mm 6 mps 747 mmHg 94%
13:00 +9°C° 0.7 mm 7 mps 747 mmHg 91%
14:00 +10°C° 0.7 mm 7 mps 747 mmHg 88%
15:00 +10°C° 0.7 mm 7 mps 747 mmHg 85%
16:00 +10°C° 0.2 mm 7 mps 747 mmHg 85%
17:00 +10°C° 0.2 mm 7 mps 748 mmHg 86%
18:00 +9°C° 0.2 mm 7 mps 748 mmHg 86%
19:00 +9°C° 0.1 mm 6 mps 748 mmHg 88%
20:00 +9°C° 0.1 mm 6 mps 748 mmHg 89%
21:00 +8°C° 0.1 mm 5 mps 748 mmHg 91%
22:00 +8°C° 1.3 mm 5 mps 747 mmHg 92%
23:00 +8°C° 1.3 mm 5 mps 747 mmHg 93%

29 January, Friday

Time Temperature Precipitation Wind Pressure Humidity
00:00 +8°C° 1.3 mm 5 mps 746 mmHg 95%
01:00 +8°C° 1.3 mm 6 mps 746 mmHg 91%
02:00 +9°C° 1.3 mm 7 mps 746 mmHg 87%
03:00 +9°C° 1.3 mm 8 mps 745 mmHg 83%
04:00 +7°C° 0 mm 9 mps 746 mmHg 82%
05:00 +7°C° 0 mm 9 mps 746 mmHg 80%
06:00 +6°C° 0 mm 9 mps 747 mmHg 79%
07:00 +6°C° 0 mm 8 mps 747 mmHg 80%
08:00 +6°C° 0 mm 8 mps 747 mmHg 81%
09:00 +6°C° 0 mm 7 mps 748 mmHg 83%
10:00 +8°C° 0.1 mm 7 mps 748 mmHg 81%
11:00 +8°C° 0.1 mm 7 mps 748 mmHg 79%
12:00 +8°C° 0.1 mm 7 mps 748 mmHg 78%
13:00 +8°C° 0.2 mm 6 mps 749 mmHg 77%
14:00 +8°C° 0.2 mm 6 mps 749 mmHg 76%
15:00 +8°C° 0.2 mm 6 mps 749 mmHg 75%
16:00 +7°C° 0.1 mm 5 mps 749 mmHg 78%
17:00 +7°C° 0.1 mm 5 mps 750 mmHg 82%
18:00 +6°C° 0.1 mm 4 mps 750 mmHg 86%
19:00 +5°C° 0.1 mm 4 mps 750 mmHg 88%
20:00 +5°C° 0.1 mm 4 mps 751 mmHg 90%
21:00 +5°C° 0.1 mm 3 mps 751 mmHg 92%
22:00 +5°C° 0.1 mm 3 mps 751 mmHg 92%
23:00 +5°C° 0.1 mm 3 mps 751 mmHg 92%

30 January, Saturday

Time Temperature Precipitation Wind Pressure Humidity
00:00 +5°C° 0.1 mm 3 mps 751 mmHg 92%
01:00 +4°C° 0.1 mm 3 mps 751 mmHg 93%
02:00 +4°C° 0.1 mm 3 mps 751 mmHg 94%
03:00 +4°C° 0.1 mm 2 mps 751 mmHg 95%
04:00 +4°C° 0 mm 2 mps 751 mmHg 95%
05:00 +4°C° 0 mm 2 mps 751 mmHg 95%
06:00 +4°C° 0 mm 2 mps 751 mmHg 95%
07:00 +4°C° 0 mm 2 mps 751 mmHg 93%
08:00 +4°C° 0 mm 2 mps 751 mmHg 92%
09:00 +4°C° 0 mm 2 mps 752 mmHg 91%
10:00 +4°C° 0 mm 2 mps 752 mmHg 88%
11:00 +5°C° 0 mm 2 mps 752 mmHg 86%
12:00 +5°C° 0 mm 2 mps 752 mmHg 83%
13:00 +5°C° 0 mm 2 mps 752 mmHg 81%
14:00 +5°C° 0 mm 2 mps 752 mmHg 80%
15:00 +5°C° 0 mm 2 mps 752 mmHg 78%
16:00 +4°C° 0 mm 2 mps 752 mmHg 78%
17:00 +4°C° 0 mm 2 mps 752 mmHg 77%
18:00 +3°C° 0 mm 2 mps 753 mmHg 77%
19:00 +3°C° 0 mm 2 mps 753 mmHg 76%
20:00 +2°C° 0 mm 2 mps 753 mmHg 75%
21:00 +2°C° 0 mm 2 mps 753 mmHg 74%
22:00 +2°C° 0 mm 2 mps 753 mmHg 76%
23:00 +2°C° 0 mm 2 mps 752 mmHg 78%

31 January, Sunday

Time Temperature Precipitation Wind Pressure Humidity
00:00 +2°C° 0 mm 2 mps 752 mmHg 79%
01:00 +2°C° 0 mm 2 mps 752 mmHg 82%
02:00 +2°C° 0 mm 2 mps 751 mmHg 86%
03:00 +2°C° 0 mm 2 mps 750 mmHg 89%
04:00 +2°C° 0 mm 3 mps 749 mmHg 89%
05:00 +2°C° 0 mm 3 mps 748 mmHg 89%
06:00 +3°C° 0 mm 4 mps 747 mmHg 89%
07:00 +3°C° 0.6 mm 4 mps 746 mmHg 89%
08:00 +2°C° 0.6 mm 5 mps 745 mmHg 90%
09:00 +3°C° 0.6 mm 6 mps 744 mmHg 90%
10:00 +3°C° 1.4 mm 6 mps 742 mmHg 91%
11:00 +4°C° 1.4 mm 6 mps 741 mmHg 91%
12:00 +4°C° 1.4 mm 6 mps 740 mmHg 92%
13:00 +5°C° 0.6 mm 6 mps 739 mmHg 92%
14:00 +7°C° 0.6 mm 5 mps 738 mmHg 92%
15:00 +7°C° 0.6 mm 5 mps 737 mmHg 92%
16:00 +7°C° 0.9 mm 5 mps 736 mmHg 92%
17:00 +8°C° 0.9 mm 5 mps 736 mmHg 93%
18:00 +8°C° 0.9 mm 4 mps 736 mmHg 93%
19:00 +8°C° 0.2 mm 4 mps 736 mmHg 93%
20:00 +7°C° 0.2 mm 4 mps 736 mmHg 94%
21:00 +7°C° 0.2 mm 4 mps 737 mmHg 94%
22:00 +8°C° 0.3 mm 3 mps 737 mmHg 95%
23:00 +8°C° 0.3 mm 3 mps 737 mmHg 95%
Show more

We Need Your Consent

Meteoprog and our Service Providers may store and access personal data such as cookies, device identifiers or other similar technologies on your device and process such data to personalise content and ads, as well as provide social media features and to analyse the traffic.

  • Store and/or access information on your device

    Cookies, device identifiers or other information can be stored or accessed on your device for the purposes indicated above.

  • Personalised ads and content, ad and content measurement, audience insights, and products development

    Ads and content can be personalised based on a profile. More data can be added to better personalise ads and content. Ad and content performance can be measured. Insights about the audience who saw the ads and content can be derived. Such data can be used to develop or improve user’s experience, systems and software.

By clicking ‘I Agree’ you will allow the use of indicated cookies, device identifiers, web beacons or other similar technologies. Your settings can be changed in the browser on your device.

For certain purposes, legitimate interests may be relied on, rather than consent. You can read more about this in our Privacy and Cookie Policy.